Showing default

KUIPER-00189, 68574

Orbit data source: Space-Track

KUIPER-00189, 68574 is a payload satellite owned by Kuiper Systems (US) in LEO that was launched on Sat, 04 Apr 2026 UTC via an ATLAS V 551 launch vehicle from the Air Force Eastern Test Range (AFETR). Payload-class satellites include a variety of spacecraft equipped with specific instruments for various scientific and technological missions. These include communications satellites like Starlink; space stations such as the ISS; scientific satellites like the Hubble; Earth observation satellites from companies like Planet Labs, Umbra, and HawkEye 360; GPS; miniature CubeSats for education and research; and military/defense satellites.

Loading next visibility...
Identifier
68574, 2026-072B
Orbit
LEO
Country
Flag of USUS
Related business
Manufacturer
Kuiper Systems
Mission
Operational spacecraft
Bus & Motor
KUIPER, Unknown motor
Mass
~490 kg wet, ~490 kg dry
Launch date (UTC)
2026-04-04 (1 month ago)
Launch vehicle
ATLAS V 551
Launch site
Air Force Eastern Test Range (AFETR)
Object type
Payload
Rocket body
Debris
Shape & HBR
Unknown shape, 3.4 m
Radar Cross Section
RCS unknown

Expand to show TLE details & history
Last TLE update: 4 hours ago

TLE from 4 hours ago
0 KUIPER-00189
1 68574U 26072B   26138.83335647 -.00005131  00000-0 -69148-3 0  9999
2 68574  51.9521 327.3299 0000884 190.9596 238.1405 14.77013203  5667
Epoch: 2026-05-18T20:00Z
TLE epoch observation values (Epoch: 2026-05-18T20:00:01.999Z)
Latitude
47.50645°
Longitude
-151.01952°
Altitude
644.239 km
Speed
7.541 km/s
True Right ascension
01h 42m 01s
True Declination
47° 19' 56"
Sunlit
Object was in daylight at epoch
Visualization orbit readout
Latitude
Unknown
Longitude
Unknown
Altitude
Unknown
Speed
Unknown
Apparent Right ascension
Unknown
Apparent Declination
Unknown
Sunlit
N/A
Visualization observer readout
Local Sidereal Time
09:14:24
Azimuth
Unknown
Elevation
Unknown
Doppler factor
Unknown
Orbital elements
Apogee altitude
639.83 km
Perigee altitude
638.59 km
Semi-major axis
7,017.347 km
Eccentricity
0.00009
Inclination
51.9521°
RAAN
327.3299°
Arg. of periapsis
190.9596°
True anomaly
238.1319°
Mean anomaly
238.1405°
Eccentric anomaly
238.1362°
Mean motion
3.69219 °/min
Orbital period
97.5 mins
BSTAR
-0.00069148
Loading maneuver chart data...
Computing Atmospheric mass density...
Loading historical data...
Loading historical data...
Loading historical data...
Loading historical data...
Loading historical data...
Loading historical data...
Loading historical data...

Documentation

Showing up to 5 results
|